Tracking 31027 objects as of 19-Jul-2025
HD Live streaming from Space Station
objects crossing your sky now

ONEWEB-0293

Track ONEWEB-0293 now!
10-day predictions
ONEWEB-0293 is classified as:


NORAD ID: 49082
Int'l Code: 2021-075H
Perigee: 1,199.4 km
Apogee: 1,202.3 km
Inclination: 87.9 °
Period: 109.3 minutes
Semi major axis: 7571 km
RCS: Unknown
Launch date: August 21, 2021
Source: United Kingdom (UK)
Launch site: TYURATAM MISSILE AND SPACE COMPLEX (TTMTR)
Your satellite tracking list
NSIGHT-1
Track 1 satellite(s)




NASA's NSSDC Master Catalog

Two Line Element Set (TLE):
1 49082U 21075H   25199.37317036  .00000032  00000-0  48589-4 0  9997
2 49082  87.9043  72.3297 0001872  76.7706 283.3635 13.17651121189676
Source of the keplerian elements: AFSPC